Flag for U.S.A. Weather past 2 weeks in Lexington-Fayette, Kentucky, U.S.A.

Now
54 °F

Clear.


Feels Like: 54 °F
Forecast: 55 / 73 °F
Wind: 3 mph from Northwest

Location: Blue Grass Airport

Current Time: Jul 29, 2014 at 5:37:08 AM

Latest Report: Jul 29, 2014 at 4:54 AM


Visibility: 10 mi

Pressure: 30.01 "Hg

Humidity: 86%

Dew point: 50 °F

Location of Lexington-FayetteLocation

Historic Weather in Lexington-Fayette — Graph

°F

Lexington-Fayette temperature yesterday

Maximum temperature yesterday: 74 °F (at 5:54 PM)
Minimum temperature yesterday: 63 °F (at 5:54 AM)
Average temperature yesterday: 69 °F

Past Weeks' High & Low Weather Summary

 TemperatureHumidityPressure
High90 °F (Jul 21, 4:54 PM)96% (Jul 21, 1:56 AM)30.17 "Hg (Jul 21, 1:56 AM)
Low54 °F (Jul 16, 4:54 AM)36% (Jul 17, 4:54 PM)29.72 "Hg (Jul 27, 5:54 PM)
Average72 °F73%30.00 "Hg
* Reported Jul 14 3:54 AM — Jul 29 3:54 AM, Lexington-Fayette, Weather by CustomWeather, © 2014

Note: Actual official high and low records may vary slightly from our data, if they occured in-between our weather recording intervals... More about our weather records

Advertising

Lexington-Fayette weather history for previous 24 hours

 ConditionsComfort  
Time TempWeatherWind HumidityBarometerVisibility
3:54 AM
Jul 29
55 °FClear.5 mph87%30.00 "Hg10 mi
2:54 AM57 °FClear.6 mph81%30.01 "Hg10 mi
1:54 AM59 °FClear.5 mph81%30.01 "Hg10 mi
12:54 AM61 °FClear.5 mph78%30.01 "Hg10 mi
11:54 PM
Jul 28
63 °FClear.7 mph75%30.01 "Hg10 mi
10:54 PM64 °FClear.6 mph78%30.01 "Hg10 mi
9:54 PM65 °FClear.5 mph76%29.99 "Hg10 mi
8:54 PM68 °FSunny.5 mph68%29.97 "Hg10 mi
7:54 PM71 °FLight rain. Sunny.9 mph63%29.97 "Hg10 mi
6:54 PM73 °FBroken clouds.14 mph64%29.98 "Hg10 mi
5:54 PM74 °FOvercast.15 mph60%29.98 "Hg10 mi
4:54 PM72 °FOvercast.9 mph64%29.98 "Hg10 mi
3:54 PM71 °FMore clouds than sun.10 mph66%29.98 "Hg10 mi
2:54 PM72 °FMore clouds than sun.8 mph66%29.98 "Hg10 mi
2:02 PM73 °FPartly sunny.12 mph64%30.00 "Hg10 mi
1:54 PM71 °FBroken clouds.10 mph66%29.97 "Hg10 mi
12:54 PM70 °FOvercast.12 mph68%29.98 "Hg10 mi
11:54 AM70 °FMostly cloudy.15 mph68%29.96 "Hg10 mi
10:54 AM70 °FOvercast.13 mph66%29.95 "Hg10 mi
9:54 AM68 °FMostly cloudy.12 mph76%29.93 "Hg10 mi
8:54 AM68 °FPassing clouds.10 mph76%29.91 "Hg10 mi
7:54 AM66 °FSunny.12 mph78%29.90 "Hg10 mi
6:54 AM64 °FClear.8 mph81%29.88 "Hg10 mi
5:54 AM63 °FClear.6 mph84%29.87 "Hg10 mi
Weather by CustomWeather, © 2014

See weather overviewHow to use our weather pages